Year,Month,Day,Hour,Minute,Value (Times are PST for temperature in C)
2018,06,23,00,00,14.20
2018,06,23,00,01,14.20
2018,06,23,00,02,14.20
2018,06,23,00,03,14.30
2018,06,23,00,04,14.30
2018,06,23,00,05,14.30
2018,06,23,00,06,14.30
2018,06,23,00,07,14.30
2018,06,23,00,08,14.20
2018,06,23,00,09,14.20
2018,06,23,00,10,14.20
2018,06,23,00,11,14.20
2018,06,23,00,12,14.20
2018,06,23,00,13,14.20
2018,06,23,00,14,14.20
2018,06,23,00,15,14.20
2018,06,23,00,16,14.20
2018,06,23,00,17,14.20
2018,06,23,00,18,14.20
2018,06,23,00,19,14.20
2018,06,23,00,20,14.20
2018,06,23,00,21,14.20
2018,06,23,00,22,14.20
2018,06,23,00,23,14.20
2018,06,23,00,24,14.20
2018,06,23,00,25,14.20
2018,06,23,00,26,14.20
2018,06,23,00,27,14.20
2018,06,23,00,28,14.20
2018,06,23,00,29,14.20
2018,06,23,00,30,14.20
2018,06,23,00,31,14.20
2018,06,23,00,32,14.20
2018,06,23,00,33,14.20
2018,06,23,00,34,14.10
2018,06,23,00,35,14.10
2018,06,23,00,36,14.10
2018,06,23,00,37,14.10
2018,06,23,00,38,14.00
2018,06,23,00,39,14.00
2018,06,23,00,40,14.00
2018,06,23,00,41,13.90
2018,06,23,00,42,13.90
2018,06,23,00,43,13.90
2018,06,23,00,44,13.90
2018,06,23,00,45,13.80
2018,06,23,00,46,13.80
2018,06,23,00,47,13.80
2018,06,23,00,48,13.70
2018,06,23,00,49,13.70
2018,06,23,00,50,13.70
2018,06,23,00,51,13.60
2018,06,23,00,52,13.60
2018,06,23,00,53,13.60
2018,06,23,00,54,13.50
2018,06,23,00,55,13.50
2018,06,23,00,56,13.40
2018,06,23,00,57,13.40
2018,06,23,00,58,13.40
2018,06,23,00,59,13.30
2018,06,23,01,00,13.30
2018,06,23,01,01,13.30
2018,06,23,01,02,13.30
2018,06,23,01,03,13.20
2018,06,23,01,04,13.20
2018,06,23,01,05,13.20
2018,06,23,01,06,13.10
2018,06,23,01,07,13.10
2018,06,23,01,08,13.10
2018,06,23,01,09,13.10
2018,06,23,01,10,13.00
2018,06,23,01,11,13.00
2018,06,23,01,12,12.90
2018,06,23,01,13,12.90
2018,06,23,01,14,12.90
2018,06,23,01,15,12.90
2018,06,23,01,16,12.80
2018,06,23,01,17,12.80
2018,06,23,01,18,12.80
2018,06,23,01,19,12.80
2018,06,23,01,20,12.80
2018,06,23,01,21,12.70
2018,06,23,01,22,12.70
2018,06,23,01,23,12.70
2018,06,23,01,24,12.60
2018,06,23,01,25,12.60
2018,06,23,01,26,12.60
2018,06,23,01,27,12.60
2018,06,23,01,28,12.50
2018,06,23,01,29,12.50
2018,06,23,01,30,12.40
2018,06,23,01,31,12.40
2018,06,23,01,32,12.40
2018,06,23,01,33,12.40
2018,06,23,01,34,12.30
2018,06,23,01,35,12.30
2018,06,23,01,36,12.30
2018,06,23,01,37,12.30
2018,06,23,01,38,12.30
2018,06,23,01,39,12.30
2018,06,23,01,40,12.20
2018,06,23,01,41,12.20
2018,06,23,01,42,12.20
2018,06,23,01,43,12.20
2018,06,23,01,44,12.20
2018,06,23,01,45,12.20
2018,06,23,01,46,12.20
2018,06,23,01,47,12.20
2018,06,23,01,48,12.10
2018,06,23,01,49,12.10
2018,06,23,01,50,12.10
2018,06,23,01,51,12.10
2018,06,23,01,52,12.10
2018,06,23,01,53,12.10
2018,06,23,01,54,12.10
2018,06,23,01,55,12.00
2018,06,23,01,56,12.00
2018,06,23,01,57,12.00
2018,06,23,01,58,12.00
2018,06,23,01,59,11.90
2018,06,23,02,00,11.90
2018,06,23,02,01,11.90
2018,06,23,02,02,11.90
2018,06,23,02,03,11.90
2018,06,23,02,04,11.90
2018,06,23,02,05,11.80
2018,06,23,02,06,11.80
2018,06,23,02,07,11.80
2018,06,23,02,08,11.80
2018,06,23,02,09,11.80
2018,06,23,02,10,11.80
2018,06,23,02,11,11.80
2018,06,23,02,12,11.80
2018,06,23,02,13,11.80
2018,06,23,02,14,11.70
2018,06,23,02,15,11.70
2018,06,23,02,16,11.70
2018,06,23,02,17,11.70
2018,06,23,02,18,11.70
2018,06,23,02,19,11.70
2018,06,23,02,20,11.70
2018,06,23,02,21,11.60
2018,06,23,02,22,11.60
2018,06,23,02,23,11.60
2018,06,23,02,24,11.60
2018,06,23,02,25,11.60
2018,06,23,02,26,11.60
2018,06,23,02,27,11.60
2018,06,23,02,28,11.50
2018,06,23,02,29,11.50
2018,06,23,02,30,11.50
2018,06,23,02,31,11.40
2018,06,23,02,32,11.40
2018,06,23,02,33,11.40
2018,06,23,02,34,11.40
2018,06,23,02,35,11.40
2018,06,23,02,36,11.40
2018,06,23,02,37,11.40
2018,06,23,02,38,11.40
2018,06,23,02,39,11.30
2018,06,23,02,40,11.30
2018,06,23,02,41,11.30
2018,06,23,02,42,11.30
2018,06,23,02,43,11.30
2018,06,23,02,44,11.30
2018,06,23,02,45,11.30
2018,06,23,02,46,11.20
2018,06,23,02,47,11.20
2018,06,23,02,48,11.20
2018,06,23,02,49,11.20
2018,06,23,02,50,11.20
2018,06,23,02,51,11.20
2018,06,23,02,52,11.20
2018,06,23,02,53,11.20
2018,06,23,02,54,11.20
2018,06,23,02,55,11.20
2018,06,23,02,56,11.10
2018,06,23,02,57,11.10
2018,06,23,02,58,11.10
2018,06,23,02,59,11.10
2018,06,23,03,00,11.10
2018,06,23,03,01,11.10
2018,06,23,03,02,11.00
2018,06,23,03,03,11.00
2018,06,23,03,04,11.00
2018,06,23,03,05,11.00
2018,06,23,03,06,11.00
2018,06,23,03,07,10.90
2018,06,23,03,08,10.90
2018,06,23,03,09,10.90
2018,06,23,03,10,10.90
2018,06,23,03,11,10.90
2018,06,23,03,12,10.90
2018,06,23,03,13,10.90
2018,06,23,03,14,10.90
2018,06,23,03,15,10.90
2018,06,23,03,16,10.90
2018,06,23,03,17,10.90
2018,06,23,03,18,10.90
2018,06,23,03,19,10.90
2018,06,23,03,20,10.90
2018,06,23,03,21,10.80
2018,06,23,03,22,10.80
2018,06,23,03,23,10.80
2018,06,23,03,24,10.80
2018,06,23,03,25,10.80
2018,06,23,03,26,10.80
2018,06,23,03,27,10.80
2018,06,23,03,28,10.80
2018,06,23,03,29,10.80
2018,06,23,03,30,10.70
2018,06,23,03,31,10.70
2018,06,23,03,32,10.70
2018,06,23,03,33,10.70
2018,06,23,03,34,10.70
2018,06,23,03,35,10.70
2018,06,23,03,36,10.70
2018,06,23,03,37,10.70
2018,06,23,03,38,10.70
2018,06,23,03,39,10.70
2018,06,23,03,40,10.70
2018,06,23,03,41,10.70
2018,06,23,03,42,10.70
2018,06,23,03,43,10.70
2018,06,23,03,44,10.70
2018,06,23,03,45,10.70
2018,06,23,03,46,10.70
2018,06,23,03,47,10.70
2018,06,23,03,48,10.60
2018,06,23,03,49,10.60
2018,06,23,03,50,10.60
2018,06,23,03,51,10.60
2018,06,23,03,52,10.60
2018,06,23,03,53,10.60
2018,06,23,03,54,10.60
2018,06,23,03,55,10.50
2018,06,23,03,56,10.50
2018,06,23,03,57,10.50
2018,06,23,03,58,10.50
2018,06,23,03,59,10.50
2018,06,23,04,00,10.40
2018,06,23,04,01,10.40
2018,06,23,04,02,10.40
2018,06,23,04,03,10.40
2018,06,23,04,04,10.40
2018,06,23,04,05,10.40
2018,06,23,04,06,10.40
2018,06,23,04,07,10.40
2018,06,23,04,08,10.30
2018,06,23,04,09,10.30
2018,06,23,04,10,10.30
2018,06,23,04,11,10.30
2018,06,23,04,12,10.30
2018,06,23,04,13,10.30
2018,06,23,04,14,10.30
2018,06,23,04,15,10.30
2018,06,23,04,16,10.30
2018,06,23,04,17,10.30
2018,06,23,04,18,10.30
2018,06,23,04,19,10.30
2018,06,23,04,20,10.30
2018,06,23,04,21,10.20
2018,06,23,04,22,10.20
2018,06,23,04,23,10.20
2018,06,23,04,24,10.20
2018,06,23,04,25,10.20
2018,06,23,04,26,10.20
2018,06,23,04,27,10.10
2018,06,23,04,28,10.10
2018,06,23,04,29,10.10
2018,06,23,04,30,10.10
2018,06,23,04,31,10.10
2018,06,23,04,32,10.10
2018,06,23,04,33,10.10
2018,06,23,04,34,10.10
2018,06,23,04,35,10.10
2018,06,23,04,36,10.10
2018,06,23,04,37,10.10
2018,06,23,04,38,10.00
2018,06,23,04,39,10.00
2018,06,23,04,40,10.00
2018,06,23,04,41,10.00
2018,06,23,04,42,10.00
2018,06,23,04,43,10.00
2018,06,23,04,44,10.00
2018,06,23,04,45,10.00
2018,06,23,04,46,10.00
2018,06,23,04,47,10.00
2018,06,23,04,48,10.00
2018,06,23,04,49,9.90
2018,06,23,04,50,9.90
2018,06,23,04,51,9.90
2018,06,23,04,52,9.90
2018,06,23,04,53,9.90
2018,06,23,04,54,9.90
2018,06,23,04,55,9.90
2018,06,23,04,56,9.90
2018,06,23,04,57,9.90
2018,06,23,04,58,9.90
2018,06,23,04,59,9.90
2018,06,23,05,00,9.90
2018,06,23,05,01,9.90
2018,06,23,05,02,9.90
2018,06,23,05,03,9.90
2018,06,23,05,04,9.90
2018,06,23,05,05,9.90
2018,06,23,05,06,9.90
2018,06,23,05,07,9.80
2018,06,23,05,08,9.80
2018,06,23,05,09,9.80
2018,06,23,05,10,9.80
2018,06,23,05,11,9.80
2018,06,23,05,12,9.80
2018,06,23,05,13,9.80
2018,06,23,05,14,9.80
2018,06,23,05,15,9.80
2018,06,23,05,16,9.80
2018,06,23,05,17,9.80
2018,06,23,05,18,9.80
2018,06,23,05,19,9.80
2018,06,23,05,20,9.80
2018,06,23,05,21,9.80
2018,06,23,05,22,9.80
2018,06,23,05,23,9.80
2018,06,23,05,24,9.80
2018,06,23,05,25,9.80
2018,06,23,05,26,9.80
2018,06,23,05,27,9.80
2018,06,23,05,28,9.80
2018,06,23,05,29,9.80
2018,06,23,05,30,9.80
2018,06,23,05,31,9.80
2018,06,23,05,32,9.90
2018,06,23,05,33,9.90
2018,06,23,05,34,9.90
2018,06,23,05,35,9.90
2018,06,23,05,36,9.90
2018,06,23,05,37,9.90
2018,06,23,05,38,9.90
2018,06,23,05,39,9.90
2018,06,23,05,40,9.90
2018,06,23,05,41,9.90
2018,06,23,05,42,9.90
2018,06,23,05,43,9.90
2018,06,23,05,44,9.90
2018,06,23,05,45,9.90
2018,06,23,05,46,9.90
2018,06,23,05,47,9.90
2018,06,23,05,48,9.90
2018,06,23,05,49,10.00
2018,06,23,05,50,10.00
2018,06,23,05,51,10.00
2018,06,23,05,52,10.00
2018,06,23,05,53,10.00
2018,06,23,05,54,10.00
2018,06,23,05,55,10.00
2018,06,23,05,56,10.00
2018,06,23,05,57,10.00
2018,06,23,05,58,10.00
2018,06,23,05,59,10.00
2018,06,23,06,00,10.00
2018,06,23,06,01,10.00
2018,06,23,06,02,10.00
2018,06,23,06,03,10.00
2018,06,23,06,04,9.90
2018,06,23,06,05,9.90
2018,06,23,06,06,9.90
2018,06,23,06,07,9.90
2018,06,23,06,08,9.80
2018,06,23,06,09,9.80
2018,06,23,06,10,9.80
2018,06,23,06,11,9.80
2018,06,23,06,12,9.80
2018,06,23,06,13,9.80
2018,06,23,06,14,9.80
2018,06,23,06,15,9.80
2018,06,23,06,16,9.70
2018,06,23,06,17,9.70
2018,06,23,06,18,9.70
2018,06,23,06,19,9.70
2018,06,23,06,20,9.70
2018,06,23,06,21,9.70
2018,06,23,06,22,9.70
2018,06,23,06,23,9.70
2018,06,23,06,24,9.70
2018,06,23,06,25,9.70
2018,06,23,06,26,9.60
2018,06,23,06,27,9.60
2018,06,23,06,28,9.60
2018,06,23,06,29,9.60
2018,06,23,06,30,9.60
2018,06,23,06,31,9.60
2018,06,23,06,32,9.60
2018,06,23,06,33,9.60
2018,06,23,06,34,9.60
2018,06,23,06,35,9.60
2018,06,23,06,36,9.60
2018,06,23,06,37,9.60
2018,06,23,06,38,9.60
2018,06,23,06,39,9.60
2018,06,23,06,40,9.60
2018,06,23,06,41,9.60
2018,06,23,06,42,9.60
2018,06,23,06,43,9.60
2018,06,23,06,44,9.70
2018,06,23,06,45,9.70
2018,06,23,06,46,9.70
2018,06,23,06,47,9.70
2018,06,23,06,48,9.70
2018,06,23,06,49,9.70
2018,06,23,06,50,9.70
2018,06,23,06,51,9.70
2018,06,23,06,52,9.70
2018,06,23,06,53,9.80
2018,06,23,06,54,9.80
2018,06,23,06,55,9.80
2018,06,23,06,56,9.80
2018,06,23,06,57,9.90
2018,06,23,06,58,9.90
2018,06,23,06,59,9.90
2018,06,23,07,00,10.00
2018,06,23,07,01,10.00
2018,06,23,07,02,10.10
2018,06,23,07,03,10.10
2018,06,23,07,04,10.10
2018,06,23,07,05,10.20
2018,06,23,07,06,10.20
2018,06,23,07,07,10.20
2018,06,23,07,08,10.20
2018,06,23,07,09,10.30
2018,06,23,07,10,10.30
2018,06,23,07,11,10.30
2018,06,23,07,12,10.30
2018,06,23,07,13,10.30
2018,06,23,07,14,10.30
2018,06,23,07,15,10.40
2018,06,23,07,16,10.40
2018,06,23,07,17,10.50
2018,06,23,07,18,10.60
2018,06,23,07,19,10.60
2018,06,23,07,20,10.80
2018,06,23,07,21,10.90
2018,06,23,07,22,11.00
2018,06,23,07,23,11.10
2018,06,23,07,24,11.20
2018,06,23,07,25,11.30
2018,06,23,07,26,11.40
2018,06,23,07,27,11.50
2018,06,23,07,28,11.60
2018,06,23,07,29,11.70
2018,06,23,07,30,11.80
2018,06,23,07,31,11.90
2018,06,23,07,32,11.90
2018,06,23,07,33,12.00
2018,06,23,07,34,12.10
2018,06,23,07,35,12.20
2018,06,23,07,36,12.30
2018,06,23,07,37,12.40
2018,06,23,07,38,12.50
2018,06,23,07,39,12.60
2018,06,23,07,40,12.70
2018,06,23,07,41,12.70
2018,06,23,07,42,12.70
2018,06,23,07,43,12.80
2018,06,23,07,44,12.80
2018,06,23,07,45,12.90
2018,06,23,07,46,12.90
2018,06,23,07,47,13.00
2018,06,23,07,48,13.10
2018,06,23,07,49,13.20
2018,06,23,07,50,13.20
2018,06,23,07,51,13.30
2018,06,23,07,52,13.30
2018,06,23,07,53,13.30
2018,06,23,07,54,13.30
2018,06,23,07,55,13.40
2018,06,23,07,56,13.40
2018,06,23,07,57,13.50
2018,06,23,07,58,13.50
2018,06,23,07,59,13.50
2018,06,23,08,00,13.60
2018,06,23,08,01,13.60
2018,06,23,08,02,13.60
2018,06,23,08,03,13.60
2018,06,23,08,04,13.70
2018,06,23,08,05,13.70
2018,06,23,08,06,13.70
2018,06,23,08,07,13.70
2018,06,23,08,08,13.70
2018,06,23,08,09,13.70
2018,06,23,08,10,13.80
2018,06,23,08,11,13.90
2018,06,23,08,12,13.90
2018,06,23,08,13,14.00
2018,06,23,08,14,14.10
2018,06,23,08,15,14.10
2018,06,23,08,16,14.10
2018,06,23,08,17,14.20
2018,06,23,08,18,14.20
2018,06,23,08,19,14.20
2018,06,23,08,20,14.30
2018,06,23,08,21,14.30
2018,06,23,08,22,14.30
2018,06,23,08,23,14.30
2018,06,23,08,24,14.30
2018,06,23,08,25,14.20
2018,06,23,08,26,14.20
2018,06,23,08,27,14.20
2018,06,23,08,28,14.20
2018,06,23,08,29,14.20
2018,06,23,08,30,14.20
2018,06,23,08,31,14.20
2018,06,23,08,32,14.30
2018,06,23,08,33,14.30
2018,06,23,08,34,14.30
2018,06,23,08,35,14.30
2018,06,23,08,36,14.30
2018,06,23,08,37,14.30
2018,06,23,08,38,14.30
2018,06,23,08,39,14.30
2018,06,23,08,40,14.30
2018,06,23,08,41,14.40
2018,06,23,08,42,14.40
2018,06,23,08,43,14.50
2018,06,23,08,44,14.50
2018,06,23,08,45,14.50
2018,06,23,08,46,14.60
2018,06,23,08,47,14.60
2018,06,23,08,48,14.60
2018,06,23,08,49,14.60
2018,06,23,08,50,14.60
2018,06,23,08,51,14.70
2018,06,23,08,52,14.70
2018,06,23,08,53,14.70
2018,06,23,08,54,14.70
2018,06,23,08,55,14.70
2018,06,23,08,56,14.70
2018,06,23,08,57,14.80
2018,06,23,08,58,14.80
2018,06,23,08,59,14.90
2018,06,23,09,00,15.00
2018,06,23,09,01,15.00
2018,06,23,09,02,15.10
2018,06,23,09,03,15.10
2018,06,23,09,04,15.20
2018,06,23,09,05,15.20
2018,06,23,09,06,15.20
2018,06,23,09,07,15.20
2018,06,23,09,08,15.20
2018,06,23,09,09,15.30
2018,06,23,09,10,15.30
2018,06,23,09,11,15.30
2018,06,23,09,12,15.30
2018,06,23,09,13,15.30
2018,06,23,09,14,15.30
2018,06,23,09,15,15.30
2018,06,23,09,16,15.40
2018,06,23,09,17,15.40
2018,06,23,09,18,15.50
2018,06,23,09,19,15.50
2018,06,23,09,20,15.60
2018,06,23,09,21,15.70
2018,06,23,09,22,15.70
2018,06,23,09,23,15.80
2018,06,23,09,24,15.80
2018,06,23,09,25,15.90
2018,06,23,09,26,16.00
2018,06,23,09,27,16.10
2018,06,23,09,28,16.20
2018,06,23,09,29,16.30
2018,06,23,09,30,16.30
2018,06,23,09,31,16.30
2018,06,23,09,32,16.30
2018,06,23,09,33,16.30
2018,06,23,09,34,16.30
2018,06,23,09,35,16.30
2018,06,23,09,36,16.30
2018,06,23,09,37,16.40
2018,06,23,09,38,16.30
2018,06,23,09,39,16.30
2018,06,23,09,40,16.30
2018,06,23,09,41,16.30
2018,06,23,09,42,16.30
2018,06,23,09,43,16.30
2018,06,23,09,44,16.30
2018,06,23,09,45,16.30
2018,06,23,09,46,16.40
2018,06,23,09,47,16.50
2018,06,23,09,48,16.50
2018,06,23,09,49,16.70
2018,06,23,09,50,16.80
2018,06,23,09,51,16.90
2018,06,23,09,52,17.00
2018,06,23,09,53,17.10
2018,06,23,09,54,17.20
2018,06,23,09,55,17.30
2018,06,23,09,56,17.30
2018,06,23,09,57,17.40
2018,06,23,09,58,17.40
2018,06,23,09,59,17.50
2018,06,23,10,00,17.60
2018,06,23,10,01,17.60
2018,06,23,10,02,17.70
2018,06,23,10,03,17.70
2018,06,23,10,04,17.70
2018,06,23,10,05,17.70
2018,06,23,10,06,17.80
2018,06,23,10,07,17.80
2018,06,23,10,08,17.80
2018,06,23,10,09,17.90
2018,06,23,10,10,17.90
2018,06,23,10,11,18.00
2018,06,23,10,12,18.10
2018,06,23,10,13,18.10
2018,06,23,10,14,18.10
2018,06,23,10,15,18.20
2018,06,23,10,16,18.20
2018,06,23,10,17,18.20
2018,06,23,10,18,18.10
2018,06,23,10,19,18.10
2018,06,23,10,20,18.10
2018,06,23,10,21,18.00
2018,06,23,10,22,18.00
2018,06,23,10,23,17.90
2018,06,23,10,24,17.90
2018,06,23,10,25,18.00
2018,06,23,10,26,18.10
2018,06,23,10,27,18.20
2018,06,23,10,28,18.30
2018,06,23,10,29,18.40
2018,06,23,10,30,18.40
2018,06,23,10,31,18.50
2018,06,23,10,32,18.60
2018,06,23,10,33,18.70
2018,06,23,10,34,18.70
2018,06,23,10,35,18.80
2018,06,23,10,36,18.80
2018,06,23,10,37,18.80
2018,06,23,10,38,18.80
2018,06,23,10,39,18.80
2018,06,23,10,40,18.70
2018,06,23,10,41,18.70
2018,06,23,10,42,18.70
2018,06,23,10,43,18.60
2018,06,23,10,44,18.70
2018,06,23,10,45,18.70
2018,06,23,10,46,18.80
2018,06,23,10,47,18.80
2018,06,23,10,48,18.90
2018,06,23,10,49,18.90
2018,06,23,10,50,19.00
2018,06,23,10,51,19.10
2018,06,23,10,52,19.20
2018,06,23,10,53,19.30
2018,06,23,10,54,19.40
2018,06,23,10,55,19.40
2018,06,23,10,56,19.40
2018,06,23,10,57,19.50
2018,06,23,10,58,19.50
2018,06,23,10,59,19.50
2018,06,23,11,00,19.60
2018,06,23,11,01,19.60
2018,06,23,11,02,19.60
2018,06,23,11,03,19.60
2018,06,23,11,04,19.50
2018,06,23,11,05,19.50
2018,06,23,11,06,19.40
2018,06,23,11,07,19.40
2018,06,23,11,08,19.40
2018,06,23,11,09,19.40
2018,06,23,11,10,19.40
2018,06,23,11,11,19.50
2018,06,23,11,12,19.60
2018,06,23,11,13,19.60
2018,06,23,11,14,19.70
2018,06,23,11,15,19.80
2018,06,23,11,16,19.90
2018,06,23,11,17,20.00
2018,06,23,11,18,20.10
2018,06,23,11,19,20.10
2018,06,23,11,20,20.10
2018,06,23,11,21,20.10
2018,06,23,11,22,20.00
2018,06,23,11,23,20.00
2018,06,23,11,24,20.00
2018,06,23,11,25,20.00
2018,06,23,11,26,20.10
2018,06,23,11,27,20.10
2018,06,23,11,28,20.20
2018,06,23,11,29,20.20
2018,06,23,11,30,20.20
2018,06,23,11,31,20.20
2018,06,23,11,32,20.10
2018,06,23,11,33,20.10
2018,06,23,11,34,20.10
2018,06,23,11,35,20.00
2018,06,23,11,36,20.00
2018,06,23,11,37,19.90
2018,06,23,11,38,20.00
2018,06,23,11,39,20.00
2018,06,23,11,40,20.10
2018,06,23,11,41,20.20
2018,06,23,11,42,20.20
2018,06,23,11,43,20.30
2018,06,23,11,44,20.40
2018,06,23,11,45,20.50
2018,06,23,11,46,20.50
2018,06,23,11,47,20.60
2018,06,23,11,48,20.60
2018,06,23,11,49,20.60
2018,06,23,11,50,20.60
2018,06,23,11,51,20.60
2018,06,23,11,52,20.60
2018,06,23,11,53,20.60
2018,06,23,11,54,20.60
2018,06,23,11,55,20.60
2018,06,23,11,56,20.60
2018,06,23,11,57,20.60
2018,06,23,11,58,20.70
2018,06,23,11,59,20.70
2018,06,23,12,00,20.80
2018,06,23,12,01,20.90
2018,06,23,12,02,21.00
2018,06,23,12,03,21.10
2018,06,23,12,04,21.20
2018,06,23,12,05,21.20
2018,06,23,12,06,21.20
2018,06,23,12,07,21.20
2018,06,23,12,08,21.20
2018,06,23,12,09,21.20
2018,06,23,12,10,21.30
2018,06,23,12,11,21.30
2018,06,23,12,12,21.30
2018,06,23,12,13,21.40
2018,06,23,12,14,21.40
2018,06,23,12,15,21.40
2018,06,23,12,16,21.40
2018,06,23,12,17,21.40
2018,06,23,12,18,21.40
2018,06,23,12,19,21.40
2018,06,23,12,20,21.40
2018,06,23,12,21,21.40
2018,06,23,12,22,21.40
2018,06,23,12,23,21.50
2018,06,23,12,24,21.60
2018,06,23,12,25,21.70
2018,06,23,12,26,21.80
2018,06,23,12,27,21.80
2018,06,23,12,28,21.90
2018,06,23,12,29,21.90
2018,06,23,12,30,21.90
2018,06,23,12,31,22.00
2018,06,23,12,32,22.10
2018,06,23,12,33,22.10
2018,06,23,12,34,22.20
2018,06,23,12,35,22.30
2018,06,23,12,36,22.30
2018,06,23,12,37,22.30
2018,06,23,12,38,22.40
2018,06,23,12,39,22.40
2018,06,23,12,40,22.30
2018,06,23,12,41,22.30
2018,06,23,12,42,22.20
2018,06,23,12,43,22.20
2018,06,23,12,44,22.20
2018,06,23,12,45,22.20
2018,06,23,12,46,22.20
2018,06,23,12,47,22.20
2018,06,23,12,48,22.30
2018,06,23,12,49,22.30
2018,06,23,12,50,22.30
2018,06,23,12,51,22.30
2018,06,23,12,52,22.30
2018,06,23,12,53,22.30
2018,06,23,12,54,22.20
2018,06,23,12,55,22.30
2018,06,23,12,56,22.30
2018,06,23,12,57,22.40
2018,06,23,12,58,22.50
2018,06,23,12,59,22.60
2018,06,23,13,00,22.60
2018,06,23,13,01,22.60
2018,06,23,13,02,22.70
2018,06,23,13,03,22.70
2018,06,23,13,04,22.60
2018,06,23,13,05,22.60
2018,06,23,13,06,22.50
2018,06,23,13,07,22.40
2018,06,23,13,08,22.40
2018,06,23,13,09,22.40
2018,06,23,13,10,22.30
2018,06,23,13,11,22.30
2018,06,23,13,12,22.40
2018,06,23,13,13,22.40
2018,06,23,13,14,22.40
2018,06,23,13,15,22.50
2018,06,23,13,16,22.60
2018,06,23,13,17,22.70
2018,06,23,13,18,22.80
2018,06,23,13,19,22.90
2018,06,23,13,20,23.00
2018,06,23,13,21,23.10
2018,06,23,13,22,23.20
2018,06,23,13,23,23.30
2018,06,23,13,24,23.40
2018,06,23,13,25,23.40
2018,06,23,13,26,23.60
2018,06,23,13,27,23.70
2018,06,23,13,28,23.80
2018,06,23,13,29,23.90
2018,06,23,13,30,23.90
2018,06,23,13,31,23.90
2018,06,23,13,32,23.80
2018,06,23,13,33,23.70
2018,06,23,13,34,23.60
2018,06,23,13,35,23.60
2018,06,23,13,36,23.60
2018,06,23,13,37,23.60
2018,06,23,13,38,23.60
2018,06,23,13,39,23.60
2018,06,23,13,40,23.50
2018,06,23,13,41,23.50
2018,06,23,13,42,23.40
2018,06,23,13,43,23.40
2018,06,23,13,44,23.40
2018,06,23,13,45,23.40
2018,06,23,13,46,23.40
2018,06,23,13,47,23.50
2018,06,23,13,48,23.50
2018,06,23,13,49,23.60
2018,06,23,13,50,23.60
2018,06,23,13,51,23.60
2018,06,23,13,52,23.60
2018,06,23,13,53,23.50
2018,06,23,13,54,23.50
2018,06,23,13,55,23.50
2018,06,23,13,56,23.60
2018,06,23,13,57,23.50
2018,06,23,13,58,23.50
2018,06,23,13,59,23.40
2018,06,23,14,00,23.50
2018,06,23,14,01,23.60
2018,06,23,14,02,23.70
2018,06,23,14,03,23.70
2018,06,23,14,04,23.70
2018,06,23,14,05,23.70
2018,06,23,14,06,23.70
2018,06,23,14,07,23.80
2018,06,23,14,08,23.80
2018,06,23,14,09,23.80
2018,06,23,14,10,23.80
2018,06,23,14,11,23.80
2018,06,23,14,12,23.90
2018,06,23,14,13,23.90
2018,06,23,14,14,23.90
2018,06,23,14,15,23.80
2018,06,23,14,16,23.80
2018,06,23,14,17,23.70
2018,06,23,14,18,23.70
2018,06,23,14,19,23.70
2018,06,23,14,20,23.70
2018,06,23,14,21,23.80
2018,06,23,14,22,23.80
2018,06,23,14,23,23.90
2018,06,23,14,24,23.80
2018,06,23,14,25,23.80
2018,06,23,14,26,23.80
2018,06,23,14,27,23.80
2018,06,23,14,28,23.80
2018,06,23,14,29,23.80
2018,06,23,14,30,23.90
2018,06,23,14,31,23.90
2018,06,23,14,32,24.00
2018,06,23,14,33,24.10
2018,06,23,14,34,24.20
2018,06,23,14,35,24.10
2018,06,23,14,36,24.10
2018,06,23,14,37,24.10
2018,06,23,14,38,24.00
2018,06,23,14,39,24.00
2018,06,23,14,40,24.00
2018,06,23,14,41,24.10
2018,06,23,14,42,24.10
2018,06,23,14,43,24.10
2018,06,23,14,44,24.20
2018,06,23,14,45,24.20
2018,06,23,14,46,24.10
2018,06,23,14,47,24.10
2018,06,23,14,48,24.10
2018,06,23,14,49,24.10
2018,06,23,14,50,24.10
2018,06,23,14,51,24.10
2018,06,23,14,52,24.20
2018,06,23,14,53,24.20
2018,06,23,14,54,24.30
2018,06,23,14,55,24.30
2018,06,23,14,56,24.30
2018,06,23,14,57,24.40
2018,06,23,14,58,24.40
2018,06,23,14,59,24.40
2018,06,23,15,00,24.40
2018,06,23,15,01,24.30
2018,06,23,15,02,24.20
2018,06,23,15,03,24.20
2018,06,23,15,04,24.30
2018,06,23,15,05,24.30
2018,06,23,15,06,24.30
2018,06,23,15,07,24.30
2018,06,23,15,08,24.30
2018,06,23,15,09,24.30
2018,06,23,15,10,24.40
2018,06,23,15,11,24.30
2018,06,23,15,12,24.30
2018,06,23,15,13,24.30
2018,06,23,15,14,24.20
2018,06,23,15,15,24.10
2018,06,23,15,16,24.10
2018,06,23,15,17,24.10
2018,06,23,15,18,24.10
2018,06,23,15,19,24.10
2018,06,23,15,20,24.10
2018,06,23,15,21,24.10
2018,06,23,15,22,24.10
2018,06,23,15,23,24.10
2018,06,23,15,24,24.10
2018,06,23,15,25,24.00
2018,06,23,15,26,24.00
2018,06,23,15,27,23.90
2018,06,23,15,28,23.90
2018,06,23,15,29,24.00
2018,06,23,15,30,24.00
2018,06,23,15,31,24.00
2018,06,23,15,32,24.00
2018,06,23,15,33,24.00
2018,06,23,15,34,24.00
2018,06,23,15,35,24.10
2018,06,23,15,36,24.10
2018,06,23,15,37,24.10
2018,06,23,15,38,24.10
2018,06,23,15,39,24.00
2018,06,23,15,40,24.00
2018,06,23,15,41,23.90
2018,06,23,15,42,23.90
2018,06,23,15,43,23.90
2018,06,23,15,44,23.90
2018,06,23,15,45,23.80
2018,06,23,15,46,23.80
2018,06,23,15,47,23.80
2018,06,23,15,48,23.80
2018,06,23,15,49,23.90
2018,06,23,15,50,23.90
2018,06,23,15,51,24.00
2018,06,23,15,52,24.10
2018,06,23,15,53,24.10
2018,06,23,15,54,24.10
2018,06,23,15,55,24.10
2018,06,23,15,56,24.20
2018,06,23,15,57,24.20
2018,06,23,15,58,24.10
2018,06,23,15,59,24.00
2018,06,23,16,00,23.90
2018,06,23,16,01,23.90
2018,06,23,16,02,23.90
2018,06,23,16,03,24.00
2018,06,23,16,04,24.10
2018,06,23,16,05,24.10
2018,06,23,16,06,24.10
2018,06,23,16,07,24.10
2018,06,23,16,08,24.10
2018,06,23,16,09,24.10
2018,06,23,16,10,24.00
2018,06,23,16,11,24.00
2018,06,23,16,12,23.90
2018,06,23,16,13,23.80
2018,06,23,16,14,23.80
2018,06,23,16,15,23.80
2018,06,23,16,16,23.80
2018,06,23,16,17,23.80
2018,06,23,16,18,23.80
2018,06,23,16,19,23.80
2018,06,23,16,20,23.80
2018,06,23,16,21,23.80
2018,06,23,16,22,23.90
2018,06,23,16,23,23.90
2018,06,23,16,24,23.90
2018,06,23,16,25,23.90
2018,06,23,16,26,23.90
2018,06,23,16,27,24.00
2018,06,23,16,28,24.00
2018,06,23,16,29,24.00
2018,06,23,16,30,24.00
2018,06,23,16,31,24.00
2018,06,23,16,32,24.00
2018,06,23,16,33,24.00
2018,06,23,16,34,24.00
2018,06,23,16,35,24.00
2018,06,23,16,36,24.00
2018,06,23,16,37,24.00
2018,06,23,16,38,24.00
2018,06,23,16,39,24.10
2018,06,23,16,40,24.10
2018,06,23,16,41,24.00
2018,06,23,16,42,24.00
2018,06,23,16,43,23.90
2018,06,23,16,44,23.80
2018,06,23,16,45,23.80
2018,06,23,16,46,23.90
2018,06,23,16,47,23.90
2018,06,23,16,48,24.00
2018,06,23,16,49,24.00
2018,06,23,16,50,24.00
2018,06,23,16,51,24.00
2018,06,23,16,52,24.00
2018,06,23,16,53,24.00
2018,06,23,16,54,23.90
2018,06,23,16,55,23.80
2018,06,23,16,56,23.80
2018,06,23,16,57,23.80
2018,06,23,16,58,23.70
2018,06,23,16,59,23.70
2018,06,23,17,00,23.70
2018,06,23,17,01,23.70
2018,06,23,17,02,23.80
2018,06,23,17,03,23.80
2018,06,23,17,04,23.80
2018,06,23,17,05,23.80
2018,06,23,17,06,23.80
2018,06,23,17,07,23.70
2018,06,23,17,08,23.70
2018,06,23,17,09,23.70
2018,06,23,17,10,23.70
2018,06,23,17,11,23.60
2018,06,23,17,12,23.60
2018,06,23,17,13,23.60
2018,06,23,17,14,23.60
2018,06,23,17,15,23.60
2018,06,23,17,16,23.60
2018,06,23,17,17,23.60
2018,06,23,17,18,23.60
2018,06,23,17,19,23.60
2018,06,23,17,20,23.60
2018,06,23,17,21,23.60
2018,06,23,17,22,23.50
2018,06,23,17,23,23.40
2018,06,23,17,24,23.30